Flag for Brazil Weather past 2 weeks in Santarém, Pará, Brazil

Now
79 °F

Passing clouds.


Feels Like: 83 °F
Forecast: 75 / 86 °F
Wind: 9 mph from East

Location: Santarem-Aeroporto

Current Time: Apr 28, 2015 at 1:00:14 AM

Latest Report: Apr 27, 2015 at 11:00 PM


Visibility: N/A

Pressure: 29.89 "Hg

Humidity: 94%

Dew point: 77 °F

Location of SantarémLocation

Historic Weather in Santarém — Graph

°F

Santarém temperature yesterday

Maximum temperature yesterday: 84 °F (at 11:00 AM)
Minimum temperature yesterday: 77 °F (at 10:00 PM)
Average temperature yesterday: 81 °F

Past Weeks' High & Low Weather Summary

 TemperatureHumidityPressure
High88 °F (Apr 16, 2:00 PM)100% (Apr 12, 11:00 PM)29.98 "Hg (Apr 12, 11:00 PM)
Low39 °F (Apr 12, 11:00 PM)66% (Apr 13, 5:00 PM)29.74 "Hg (Apr 16, 5:00 PM)
Average80 °F87%29.87 "Hg
* Reported Apr 12 11:00 PM — Apr 27 11:00 PM, Santarém, Weather by CustomWeather, © 2015

Note: Actual official high and low records may vary slightly from our data, if they occured in-between our weather recording intervals... More about our weather records

Advertising

Santarém weather history for previous 24 hours

 ConditionsComfort  
Time TempWeatherWind HumidityBarometerVisibility
11:00 PM
Mon, Apr 27
79 °FPassing clouds.9 mph94%29.89 "HgN/A
10:00 PM77 °FPartly cloudy.12 mph94%29.89 "HgN/A
9:00 PM81 °FPassing clouds.8 mph84%29.86 "HgN/A
8:00 PM81 °FPassing clouds.5 mph84%29.83 "HgN/A
7:00 PM81 °FScattered clouds.8 mph89%29.80 "HgN/A
6:00 PM82 °FScattered clouds.6 mph84%29.77 "HgN/A
5:00 PM82 °FPassing clouds.7 mph84%29.77 "HgN/A
4:00 PM84 °FScattered clouds.9 mph84%29.77 "HgN/A
3:00 PM84 °FPartly sunny.12 mph79%29.80 "HgN/A
2:00 PM81 °FBroken clouds.7 mph89%29.83 "HgN/A
1:00 PM82 °FScattered showers. Broken clouds.12 mph89%29.86 "HgN/A
12:00 PM81 °FLight rain. Broken clouds.10 mph89%29.89 "Hg4 mi
11:00 AM84 °FScattered clouds.9 mph84%29.92 "HgN/A
10:00 AM82 °FScattered clouds.9 mph84%29.92 "HgN/A
9:00 AM82 °FPassing clouds.14 mph79%29.89 "HgN/A
8:00 AM81 °FScattered clouds.12 mph84%29.89 "HgN/A
7:00 AM79 °FPartly cloudy.14 mph89%29.86 "HgN/A
6:00 AM79 °FPassing clouds.6 mph89%29.86 "HgN/A
5:00 AM79 °FPassing clouds.6 mph89%29.83 "HgN/A
4:00 AM79 °FPassing clouds.2 mph94%29.83 "HgN/A
3:00 AM79 °FPartly cloudy.2 mph89%29.83 "HgN/A
2:00 AM79 °FPartly cloudy.3 mph89%29.86 "HgN/A
1:00 AM79 °FLight rain. Partly cloudy.9 mph89%29.89 "HgN/A
Weather by CustomWeather, © 2015

See weather overviewHow to use our weather pages